EW4436 Weather Reports


Display with metric or nautical units.
time (UTC)temp
F
wind
direction
speed
MPH
gust
MPH
rain 1hr
in
rain 24hr
in
rain mn
in
humidity
%
barometer
mb
20260504035103 45 353 0.0 0.0 0.00 0.00 0.00 91 1011.8
20260504034603 46 353 0.0 1.0 0.00 0.00 0.00 91 1011.7
20260504034103 46 353 0.0 0.0 0.00 0.00 0.00 90 1011.7
20260504033103 46 353 0.0 0.0 0.00 0.00 0.00 89 1011.6
20260504032603 46 353 0.0 0.0 0.00 0.00 0.00 89 1011.6
20260504032104 46 353 0.0 0.0 0.00 0.00 0.00 88 1011.6
20260504031604 46 353 0.0 0.0 0.00 0.00 0.00 88 1011.5
20260504031103 47 353 0.0 0.0 0.00 0.00 0.00 87 1011.5
20260504030603 47 353 0.0 0.0 0.00 0.00 0.00 87 1011.4
20260504030104 47 353 0.0 0.0 0.00 0.00 0.00 87 1011.5
20260504025603 46 353 0.0 0.0 0.00 0.00 0.00 87 1011.5
20260504025103 46 353 0.0 1.0 0.00 0.00 0.00 87 1011.6
20260504024603 46 353 0.0 1.0 0.00 0.00 0.00 88 1011.7
20260504024104 46 353 0.0 1.0 0.00 0.00 0.00 86 1011.6
20260504023103 46 353 0.0 2.0 0.00 0.00 0.00 85 1011.7
20260504022604 46 353 1.0 2.0 0.00 0.00 0.00 86 1011.4
20260504022104 46 353 0.0 0.0 0.00 0.00 0.00 84 1011.7
20260504021604 47 353 0.0 1.0 0.00 0.00 0.00 83 1011.5
20260504021104 47 354 0.0 0.0 0.00 0.00 0.00 82 1011.5
20260504020604 47 354 0.0 0.0 0.00 0.00 0.00 81 1011.6
20260504015603 47 353 1.0 1.0 0.00 0.00 0.00 81 1011.5
20260504015103 48 353 0.0 1.0 0.00 0.00 0.00 79 1011.5
20260504014604 48 353 0.0 1.0 0.00 0.00 0.00 79 1011.4
20260504014104 48 353 1.0 1.0 0.00 0.00 0.00 78 1011.5
20260504013604 47 353 0.0 0.0 0.00 0.00 0.00 78 1011.5
20260504013103 47 352 0.0 0.0 0.00 0.00 0.00 78 1011.4
20260504012104 49 352 0.0 0.0 0.00 0.00 0.00 76 1011.3
20260504010603 50 352 0.0 1.0 0.00 0.00 0.00 73 1011.2
20260504010104 50 352 0.0 0.0 0.00 0.00 0.00 71 1011.2
20260504005603 50 352 0.0 0.0 0.00 0.00 0.00 70 1011.0
20260504005104 51 351 0.0 0.0 0.00 0.00 0.00 69 1011.1
20260504004603 51 351 0.0 0.0 0.00 0.00 0.00 68 1011.1
20260504004103 51 351 0.0 0.0 0.00 0.00 0.00 68 1011.0
20260504003103 52 351 0.0 0.0 0.00 0.00 0.00 64 1010.9
20260504002603 52 351 0.0 0.0 0.00 0.00 0.00 63 1010.8
20260504002104 53 351 0.0 0.0 0.00 0.00 0.00 61 1010.7
20260504001604 53 351 0.0 0.0 0.00 0.00 0.00 61 1010.6
20260504001104 54 351 0.0 0.0 0.00 0.00 0.00 59 1010.6
20260504000603 55 351 0.0 0.0 0.00 0.00 0.00 57 1010.4
20260504000104 56 351 0.0 1.0 0.00 0.00 0.00 55 1010.4
20260503235604 56 351 1.0 1.0 0.00 0.00 0.00 57 1010.3
20260503235104 57 351 0.0 1.0 0.00 0.00 0.00 53 1010.3
20260503234604 58 351 1.0 1.0 0.00 0.00 0.00 52 1010.2
20260503234104 59 351 1.0 2.0 0.00 0.00 0.00 46 1010.3
20260503233604 59 351 0.0 1.0 0.00 0.00 0.00 47 1010.4
20260503233103 59 351 1.0 2.0 0.00 0.00 0.00 44 1010.1
20260503232104 59 351 0.0 1.0 0.00 0.00 0.00 44 1010.1
20260503231604 60 351 0.0 1.0 0.00 0.00 0.00 46 1010.1
20260503231103 60 351 0.0 1.0 0.00 0.00 0.00 44 1010.1
20260503230604 61 351 0.0 1.0 0.00 0.00 0.00 42 1010.2
20260503225604 61 350 2.0 3.0 0.00 0.00 0.00 42 1010.2
20260503225104 62 351 0.0 2.0 0.00 0.00 0.00 42 1010.2
20260503224604 63 352 1.0 2.0 0.00 0.00 0.00 40 1010.2
20260503224104 63 350 1.0 6.0 0.00 0.00 0.00 40 1010.1
20260503223604 64 351 0.0 1.0 0.00 0.00 0.00 40 1010.2
20260503223103 64 352 1.0 5.0 0.00 0.00 0.00 39 1010.2
20260503222603 65 352 1.0 5.0 0.00 0.00 0.00 39 1010.1
20260503222103 65 353 2.0 5.0 0.00 0.00 0.00 37 1010.1
20260503221104 64 338 3.0 10.0 0.00 0.00 0.00 39 1010.2
20260503220603 65 351 3.0 6.0 0.00 0.00 0.00 36 1010.2
20260503220104 66 350 2.0 3.0 0.00 0.00 0.00 37 1010.2
20260503215104 65 353 1.0 2.0 0.00 0.00 0.00 39 1010.0
20260503214604 64 351 2.0 7.0 0.00 0.00 0.00 37 1010.0
20260503214104 64 351 2.0 5.0 0.00 0.00 0.00 36 1010.1
20260503213104 66 351 1.0 3.0 0.00 0.00 0.00 37 1009.9
20260503212104 64 352 2.0 8.0 0.00 0.00 0.00 37 1010.1
20260503211603 64 347 5.0 12.0 0.00 0.00 0.00 38 1010.1
20260503211104 65 341 5.0 12.0 0.00 0.00 0.00 37 1009.8
20260503210104 64 346 5.0 9.0 0.00 0.00 0.00 37 1009.8
20260503205604 65 354 2.0 3.0 0.00 0.00 0.00 38 1010.0
20260503204604 65 353 3.0 5.0 0.00 0.00 0.00 38 1009.8
20260503204103 64 354 2.0 6.0 0.00 0.00 0.00 40 1009.7
20260503203603 65 354 2.0 6.0 0.00 0.00 0.00 37 1009.9
20260503203103 65 355 2.0 6.0 0.00 0.00 0.00 39 1009.9
20260503202604 65 354 1.0 3.0 0.00 0.00 0.00 40 1010.0
20260503202104 65 357 3.0 7.0 0.00 0.00 0.00 40 1009.9
20260503201604 64 355 1.0 3.0 0.00 0.00 0.00 41 1010.1
20260503200604 63 350 4.0 10.0 0.00 0.00 0.00 42 1010.2
20260503200104 64 354 5.0 7.0 0.00 0.00 0.00 39 1010.2
20260503195604 63 354 2.0 9.0 0.00 0.00 0.00 40 1010.3
20260503194104 64 353 4.0 10.0 0.00 0.00 0.00 37 1010.5
20260503193603 64 355 3.0 8.0 0.00 0.00 0.00 39 1010.6
20260503193104 64 354 4.0 8.0 0.00 0.00 0.00 40 1010.4
20260503192604 66 356 1.0 2.0 0.00 0.00 0.00 37 1010.7
20260503192104 65 356 2.0 6.0 0.00 0.00 0.00 39 1010.7
20260503191103 65 355 2.0 3.0 0.00 0.00 0.00 39 1010.7
20260503184104 63 356 1.0 6.0 0.00 0.00 0.00 40 1011.2
20260503183103 63 356 1.0 2.0 0.00 0.00 0.00 40 1011.2
20260503182604 62 353 3.0 8.0 0.00 0.00 0.00 40 1011.3
20260503182104 64 355 1.0 3.0 0.00 0.00 0.00 42 1011.1
20260503181603 63 356 2.0 6.0 0.00 0.00 0.00 43 1011.3
20260503181103 63 355 2.0 6.0 0.00 0.00 0.00 45 1011.2
20260503180604 63 353 2.0 5.0 0.00 0.00 0.00 43 1011.3
20260503180104 62 346 3.0 9.0 0.00 0.00 0.00 42 1011.4
20260503175604 61 349 3.0 9.0 0.00 0.00 0.00 41 1011.5
20260503175103 62 353 2.0 5.0 0.00 0.00 0.00 43 1011.5
20260503174603 61 355 3.0 5.0 0.00 0.00 0.00 45 1011.4
20260503174103 61 356 3.0 5.0 0.00 0.00 0.00 42 1011.6
20260503173604 61 355 2.0 6.0 0.00 0.00 0.00 45 1011.4
20260503173104 61 352 5.0 14.0 0.00 0.00 0.00 43 1011.7
20260503172604 63 354 2.0 5.0 0.00 0.00 0.00 42 1011.6
20260503172103 61 356 2.0 7.0 0.00 0.00 0.00 44 1011.5
20260503171603 61 354 1.0 5.0 0.00 0.00 0.00 43 1011.7
20260503170604 59 355 3.0 6.0 0.00 0.00 0.00 45 1011.6
20260503170104 58 351 2.0 12.0 0.00 0.00 0.00 47 1011.9
20260503160104 60 358 2.0 8.0 0.00 0.00 0.00 46 1012.4
20260503150603 57 1 2.0 6.0 0.00 0.00 0.00 48 1012.4
20260503150105 56 4 2.0 6.0 0.00 0.00 0.00 50 1012.4
20260503140104 56 6 0.0 0.0 0.00 0.00 0.00 56 1012.2
20260503131103 54 3 0.0 0.0 0.00 0.00 0.00 60 1011.9
20260503130604 54 4 0.0 0.0 0.00 0.00 0.00 62 1012.1
20260503130104 54 4 0.0 0.0 0.00 0.00 0.00 63 1012.2
20260503120105 51 6 0.0 0.0 0.00 0.00 0.00 70 1011.7
20260503110604 45 9 0.0 0.0 0.00 0.00 0.00 80 1011.2
20260503110104 45 9 0.0 0.0 0.00 0.00 0.00 81 1011.1
20260503100104 48 9 0.0 0.0 0.00 0.00 0.00 73 1009.5
20260503081604 50 9 0.0 0.0 0.00 0.00 0.00 71 1008.3
20260503081104 50 9 0.0 0.0 0.00 0.00 0.00 72 1008.3
20260503080603 50 9 0.0 0.0 0.00 0.00 0.00 74 1008.5
20260503080104 50 9 0.0 0.0 0.00 0.00 0.00 74 1008.1
20260503072603 51 9 0.0 0.0 0.00 0.00 0.00 72 1007.8
20260503072103 51 9 0.0 0.0 0.00 0.00 0.00 71 1007.7
20260503071604 51 9 0.0 0.0 0.00 0.00 0.00 73 1007.9
20260503071104 51 10 0.0 0.0 0.00 0.00 0.00 72 1007.8
20260503070104 51 9 0.0 0.0 0.00 0.00 0.00 74 1007.5
20260503060105 47 10 0.0 0.0 0.00 0.00 0.00 91 1007.3
20260503055104 47 10 0.0 0.0 0.00 0.00 0.00 95 1007.4
20260503054604 47 10 0.0 0.0 0.00 0.00 0.00 96 1007.4
20260503054104 47 10 0.0 0.0 0.00 0.00 0.00 95 1007.3
20260503053603 47 10 0.0 0.0 0.00 0.00 0.00 95 1007.4
20260503052603 46 10 0.0 0.0 0.00 0.00 0.00 96 1007.4
20260503052104 46 10 0.0 0.0 0.00 0.00 0.00 97 1007.6
20260503051603 46 10 0.0 0.0 0.00 0.00 0.00 96 1007.6
20260503051104 46 10 0.0 0.0 0.00 0.00 0.00 96 1007.7
20260503050104 46 10 0.0 0.0 0.00 0.00 0.00 96 1007.5
20260503045603 46 10 0.0 0.0 0.00 0.00 0.00 96 1007.3
20260503045103 46 10 0.0 0.0 0.00 0.00 0.00 96 1007.6
20260503044604 46 10 0.0 0.0 0.00 0.00 0.00 96 1007.7
20260503044103 46 10 0.0 0.0 0.00 0.00 0.00 97 1007.8
20260503043604 46 10 0.0 0.0 0.00 0.00 0.00 97 1007.6
20260503043103 46 10 0.0 0.0 0.00 0.00 0.00 97 1007.6
20260503042103 46 10 0.0 0.0 0.00 0.00 0.00 97 1007.7
20260503041105 46 10 0.0 0.0 0.00 0.00 0.00 96 1007.4
20260503040604 46 10 0.0 0.0 0.00 0.00 0.00 96 1007.3
20260503035603 46 10 0.0 0.0 0.00 0.00 0.00 95 1007.4